Showing default

SECOR 3, 1208

Orbit data source: Space-Track

SECOR 3, 1208 is an American payload satellite in LEO that was launched on Tue, 09 Mar 1965 UTC via a THOR SLV-2 AGENA D launch vehicle from the Air Force Western Test Range (AFWTR). Payload-class satellites include a variety of spacecraft equipped with specific instruments for various scientific and technological missions. These include communications satellites like Starlink; space stations such as the ISS; scientific satellites like the Hubble; Earth observation satellites from companies like Planet Labs, Umbra, and HawkEye 360; GPS; miniature CubeSats for education and research; and military/defense satellites.

Loading next visibility...
Identifier
1208, 1965-016E
Orbit
LEO
Country
Flag of USUS
Related business
Manufacturer
ITT
Mission
Defense Geodetic
Bus & Motor
SECOR, Unknown motor
Mass
18 kg wet, 18 kg dry
Launch date (UTC)
1965-03-09 (60 years ago)
Launch vehicle
THOR SLV-2 AGENA D
Launch site
Air Force Western Test Range (AFWTR)
Object type
Payload
Rocket body
Debris
Shape & HBR
Box, 0.2 m
Radar Cross Section
0.105 m², Medium (>0.1 m² and < 1m²)

Expand to show TLE details & history
Last TLE update: 7 hours ago

TLE from 7 hours ago
0 SECOR 3
1 01208U 65016E   25242.90983777  .00000055  00000-0  78205-4 0  9990
2 01208  70.0781  82.3390 0017589 109.3794   0.0286 13.96013902 78650
Epoch: 2025-08-30T21:50Z
TLE epoch observation values (Epoch: 2025-08-30T21:50:09.983Z)
Latitude
62.57311°
Longitude
-88.54545°
Altitude
904.95 km
Speed
7.412 km/s
True Right ascension
14h 33m 20s
True Declination
62° 26' 06"
Sunlit
Object was in daylight at epoch
Visualization orbit readout
Latitude
Unknown
Longitude
Unknown
Altitude
Unknown
Speed
Unknown
Apparent Right ascension
Unknown
Apparent Declination
Unknown
Sunlit
N/A
Visualization observer readout
Local Sidereal Time
20:18:58
Azimuth
Unknown
Elevation
Unknown
Doppler factor
Unknown
Orbital elements
Apogee altitude
918.478 km
Perigee altitude
892.855 km
Semi-major axis
7,283.803 km
Eccentricity
0.00176
Inclination
70.0781°
RAAN
82.339°
Arg. of periapsis
109.3794°
True anomaly
0.0287°
Mean anomaly
0.0286°
Eccentric anomaly
0.02865°
Mean motion
3.49145 °/min
Orbital period
103.11 mins
BSTAR
0.000078205
Loading maneuver chart data...
Computing Atmospheric mass density...
Loading historical data...
Loading historical data...
Loading historical data...
Loading historical data...
Loading historical data...
Loading historical data...
Loading historical data...

Documentation

Showing up to 5 results
|